This is the latest recevied weather packets stored in our database for station/object AB4KN. If no packets are shown the sender has not sent any weather packets the latest 10 day(s).
| Time | Temp. | Humidity | Pressure | Rain* | Wind** | Luminosity | Snow |
|---|---|---|---|---|---|---|---|
| 1778001205 | 23.89° C | 40% | 1021.5 hPa | 0 mm | - | 760 W/m² | - |
| 1778000901 | 23.89° C | 40% | 1021.4 hPa | 0 mm | - | 737 W/m² | - |
| 1778000598 | 23.89° C | 42% | 1021.5 hPa | 0 mm | - | 764 W/m² | - |
| 1778000294 | 23.89° C | 42% | 1021.6 hPa | 0 mm | - | 780 W/m² | - |
| 1777999989 | 23.89° C | 42% | 1021.8 hPa | 0 mm | - | 796 W/m² | - |
| 1777999685 | 23.33° C | 42% | 1021.4 hPa | 0 mm | - | 785 W/m² | - |
| 1777999383 | 23.89° C | 43% | 1021.6 hPa | 0 mm | - | 797 W/m² | - |
| 1777999081 | 23.89° C | 43% | 1021.5 hPa | 0 mm | - | 776 W/m² | - |
| 1777998779 | 23.89° C | 45% | 1021.5 hPa | 0 mm | - | 796 W/m² | - |
| 1777998476 | 23.89° C | 45% | 1021.5 hPa | 0 mm | - | 806 W/m² | - |
| 1777998173 | 23.33° C | 44% | 1021.5 hPa | 0 mm | - | 823 W/m² | - |
| 1777997870 | 22.78° C | 47% | 1021.5 hPa | 0 mm | - | 819 W/m² | - |
| 1777997567 | 23.33° C | 47% | 1021.6 hPa | 0 mm | - | 827 W/m² | - |
| 1777997265 | 22.78° C | 48% | 1021.8 hPa | 0 mm | - | 819 W/m² | - |
| 1777996962 | 22.78° C | 48% | 1021.5 hPa | 0 mm | - | 737 W/m² | - |
| 1777996658 | 22.78° C | 48% | 1021.9 hPa | 0 mm | - | 189 W/m² | - |
| 1777996354 | 22.78° C | 49% | 1022.1 hPa | 0 mm | - | 287 W/m² | - |
| 1777996051 | 22.22° C | 49% | 1022.1 hPa | 0 mm | - | 140 W/m² | - |
| 1777995747 | 22.22° C | 51% | 1022.1 hPa | 0 mm | - | 562 W/m² | - |
| 1777995444 | 22.22° C | 51% | 1021.9 hPa | 0 mm | - | 210 W/m² | - |
| 1777995141 | 22.22° C | 49% | 1022.2 hPa | 0 mm | - | 705 W/m² | - |
| 1777994838 | 22.22° C | 54% | 1022.1 hPa | 0 mm | - | 94 W/m² | - |
| 1777994534 | 21.67° C | 56% | 1022.3 hPa | 0 mm | - | 103 W/m² | - |
| 1777994229 | 21.67° C | 59% | 1021.8 hPa | 0 mm | - | 61 W/m² | - |
| 1777993927 | 21.67° C | 60% | 1021.8 hPa | 0 mm | - | 44 W/m² | - |
* Rain latest hour (hover to see other rain measurements)
** Current wind speed in m/s (hover to see current wind gust speed)